This demonstration page uses our WeatherBlox Daily Observations layout. Learn more.

Left ArrowRight Arrow

Hourly Observations for April 1, 2021

Temp ( °F °C ) Dew Point ( °F °C ) Humidity (%) Winds ( mph kmh ) Pressure ( in mb ) Visibility ( mi km ) Precip ( " mm )
12:53 am 00:53 Clear 31 -0.6 17 -8.3 56 56 WSW 5 7 30.55 1034 10 16 0.00 0.00
1:53 am 01:53 Clear 26 -3.3 18 -7.8 71 71 Calm 30.55 1035 10 16 0.00 0.00
2:53 am 02:53 Clear 27 -2.8 17 -8.3 66 66 Calm 30.55 1034 10 16 0.00 0.00
3:53 am 03:53 Clear 31 -0.6 16 -8.9 54 54 Calm 30.54 1034 10 16 0.00 0.00
4:53 am 04:53 Clear 25 -3.9 16 -8.9 69 69 Calm 30.55 1035 10 16 0.00 0.00
5:53 am 05:53 Clear 28 -2.2 15 -9.4 58 58 Calm 30.54 1034 10 16 0.00 0.00
6:53 am 06:53 Clear 28 -2.2 16 -8.9 60 60 S 5 7 30.55 1034 10 16 0.00 0.00
7:53 am 07:53 Sunny 30 -1.1 16 -8.9 56 56 S 7 11 30.55 1035 10 16 0.00 0.00
8:53 am 08:53 Sunny 34 1.1 19 -7.2 54 54 S 7 11 30.55 1035 10 16 0.00 0.00
9:53 am 09:53 Sunny 39 3.9 20 -6.7 46 46 S 12 19 30.54 1034 10 16 0.00 0.00
10:53 am 10:53 Sunny 46 7.8 19 -7.2 34 34 SSW 12 19 30.53 1034 10 16 0.00 0.00
11:53 am 11:53 Sunny 50 10 19 -7.2 29 29 SSW 14 22 30.50 1033 10 16 0.00 0.00
12:53 pm 12:53 Sunny 54 12.2 18 -7.8 24 24 S 15 24 30.46 1032 10 16 0.00 0.00
1:53 pm 13:53 Sunny 56 13.3 19 -7.2 24 24 SSW 16 26 30.42 1030 10 16 0.00 0.00
2:53 pm 14:53 Sunny 58 14.4 21 -6.1 24 24 S 16 26 30.37 1029 10 16 0.00 0.00
3:53 pm 15:53 Sunny 60 15.6 20 -6.7 21 21 S 18 30 30.32 1027 10 16 0.00 0.00
4:53 pm 16:53 Sunny 60 15.6 20 -6.7 21 21 SSW 16 26 30.30 1026 10 16 0.00 0.00
5:53 pm 17:53 Sunny 61 16.1 21 -6.1 21 21 S 20 31 30.26 1025 10 16 0.00 0.00
6:53 pm 18:53 Sunny 60 15.6 22 -5.6 23 23 S 14 22 30.25 1024 10 16 0.00 0.00
7:53 pm 19:53 Sunny 57 13.9 24 -4.4 28 28 SSE 14 22 30.23 1024 10 16 0.00 0.00
8:53 pm 20:53 Clear 52 11.1 23 -5 32 32 SSE 15 24 30.23 1024 10 16 0.00 0.00
9:53 pm 21:53 Clear 50 10 23 -5 35 35 SSE 16 26 30.22 1023 10 16 0.00 0.00
10:53 pm 22:53 Clear 48 8.9 24 -4.4 39 39 SSE 15 24 30.22 1023 10 16 0.00 0.00
11:53 pm 23:53 Clear 46 7.8 24 -4.4 42 42 SSE 13 20 30.21 1023 10 16 0.00 0.00

Powered by AerisWeather